Location: Karcze
(52.0945°N, 22.4786°E)
Time: 00:22:20
(UTC+00:00)

A-11 Canister half - Pass Details

Date: 09 August 2021
Orbit: 1515 x 1685 km, 47.2° (Epoch: 19 September)

Event Time Altitude Azimuth Distance (km) Brightness Sun altitude
Rises 13:49:19 0° 231° (SW) 4,733 12.5 37.3°
Reaches altitude 10° 13:52:27 10° 226° (SW) 3,773 12.2 36.8°
Maximum altitude 14:01:35 51° 155° (SSE) 1,963 10.0 35.6°
Drops below altitude 10° 14:11:03 10° 84° (E) 3,908 10.7 34.2°
Sets 14:14:21 0° 79° (E) 4,914 11.1 33.7°
